This demonstration page uses our WeatherBlox Daily Observations layout. Learn more.

Left ArrowRight Arrow

Hourly Observations for December 2, 2021

Temp ( °F °C ) Dew Point ( °F °C ) Humidity (%) Winds ( mph kmh ) Pressure ( in mb ) Visibility ( mi km ) Precip ( " mm )
12:53 am 00:53 Clear 38 3.3 28 -2.2 68 68 E 15 24 29.84 1010 10 16 N/A
1:53 am 01:53 Clear 38 3.3 28 -2.2 68 68 E 12 19 29.82 1010 10 16 N/A
2:53 am 02:53 Clear 37 2.8 28 -2.2 70 70 E 12 19 29.80 1009 10 16 N/A
3:53 am 03:53 Clear 37 2.8 28 -2.2 70 70 ENE 8 13 29.79 1009 10 16 N/A
4:53 am 04:53 Clear 35 1.7 29 -1.7 78 78 SW 5 7 29.80 1009 10 16 N/A
5:53 am 05:53 Clear 35 1.7 29 -1.7 78 78 N N/A 29.81 1010 10 16 N/A
6:53 am 06:53 Clear 32 undefined 28 -2.2 85 85 N N/A 29.81 1010 10 16 N/A
7:53 am 07:53 Sunny 33 0.6 29 -1.7 85 85 SSW 6 9 29.83 1010 10 16 N/A
8:53 am 08:53 Sunny 35 1.7 30 -1.1 82 82 SSW 6 9 29.84 1010 10 16 N/A
9:53 am 09:53 Sunny 43 6.1 35 1.7 74 74 SW 15 24 29.83 1010 10 16 N/A
10:53 am 10:53 Mostly Sunny 51 10.6 32 undefined 48 48 W 12 19 29.83 1010 10 16 N/A
11:53 am 11:53 Partly Cloudy 54 12.2 32 undefined 43 43 WNW 18 30 29.83 1010 N/A N/A
12:53 pm 12:53 Sunny N/A N/A N/A W 28 44 N/A 10 16 N/A
1:53 pm 13:53 Sunny 54 12.2 32 undefined 43 43 W 22 35 29.85 1011 10 16 N/A
2:53 pm 14:53 Sunny 53 11.7 31 -0.6 43 43 W 20 31 29.88 1012 10 16 N/A
3:39 pm 15:39 Sunny 50 10 30 -1.1 46 46 NW 14 22 29.90 1012 10 16 N/A
3:53 pm 15:53 Sunny 49 9.4 30 -1.1 48 48 NW 9 15 29.95 1014 10 16 N/A
4:53 pm 16:53 Clear 42 5.6 28 -2.2 58 58 WNW 5 7 30.00 1016 10 16 N/A
5:34 pm 17:34 Clear 36 2.2 29 -1.7 76 76 NNE 16 26 30.07 1018 10 16 N/A
5:53 pm 17:53 Clear 35 1.7 29 -1.7 78 78 N 14 22 30.07 1018 10 16 N/A
6:53 pm 18:53 Partly Cloudy 34 1.1 29 -1.7 82 82 ENE 3 6 30.14 1021 10 16 N/A
7:53 pm 19:53 Clear 29 -1.7 25 -3.9 85 85 NNE 5 7 30.18 1022 10 16 N/A
8:53 pm 20:53 Clear 28 -2.2 25 -3.9 88 88 NE 6 9 30.19 1022 10 16 N/A
9:53 pm 21:53 Clear 27 -2.8 24 -4.4 89 89 NE 7 11 30.20 1023 10 16 N/A
10:53 pm 22:53 Clear 25 -3.9 22 -5.6 88 88 NE 6 9 30.22 1023 10 16 N/A
11:53 pm 23:53 Clear 24 -4.4 21 -6.1 88 88 VRB 5 7 30.22 1023 10 16 N/A

Powered by AerisWeather